Theta_e
313 313 313 312 311 309 308 309 309 310 309 309 308 307 306 306 306 305 306 306 306 307 308 308 309 309 310 310 311 312 313 314 319 317 327 328 332 331 333 332 335 341 342 340 339 339 344
313 313 313 312 311 310 309 309 309 309 309 309 309 309 307 306 305 305 305 306 306 307 309 309 310 310 311 311 311 311 312 315 315 319 321 324 326 328 325 325 330 331 333 334 334 334 337
312 312 313 312 311 311 311 311 311 310 310 309 309 309 309 307 306 305 306 306 307 308 309 310 310 310 311 311 311 311 319 318 320 319 320 321 323 325 322 323 325 328 331 333 332 331 334
311 311 310 311 312 311 311 311 312 312 311 310 309 308 308 308 305 305 305 306 308 309 310 311 312 311 310 311 311 311 314 316 313 319 322 321 321 320 322 322 326 329 330 334 337 335 347
311 310 310 309 311 312 310 311 311 312 312 311 310 309 308 307 305 305 306 308 310 310 313 314 313 312 312 313 316 317 315 314 313 321 322 322 322 322 321 322 326 330 335 334 341 344 350
312 311 309 309 310 312 310 311 312 312 313 313 311 309 308 306 305 306 308 310 310 310 311 311 314 317 313 316 316 317 317 315 318 323 323 322 321 322 322 322 322 331 334 331 340 346 349
312 311 309 309 309 312 310 310 313 314 315 315 313 311 308 306 306 307 309 310 310 310 309 310 310 312 311 311 311 313 314 317 320 323 326 324 324 323 321 323 324 329 332 334 331 340 350
312 311 309 309 309 312 311 313 315 315 315 315 314 312 310 307 307 308 309 310 309 309 309 310 309 310 310 309 310 313 314 317 319 322 323 325 328 325 323 324 327 329 330 331 331 344 348
313 311 309 309 309 313 311 314 315 316 315 315 315 313 311 308 307 306 309 309 309 309 307 309 311 311 311 310 310 312 313 314 320 320 323 327 325 326 326 326 328 328 330 329 334 345 344
315 311 310 309 309 312 312 314 315 315 315 314 314 312 311 309 308 307 311 309 308 309 310 313 314 312 311 310 312 312 313 313 316 321 320 322 322 325 325 327 329 329 325 327 328 334 349
321 312 310 309 309 312 313 312 315 314 315 314 313 312 311 309 309 309 308 308 309 308 311 313 313 311 311 311 311 313 312 312 316 319 320 322 321 323 326 328 324 328 326 328 327 329 338
323 314 310 309 308 311 313 312 314 314 315 315 313 311 310 311 309 307 308 308 309 311 311 314 312 311 312 310 312 311 311 311 312 318 319 321 319 321 325 323 325 325 325 328 332 330 332
323 314 311 309 308 311 314 312 313 313 315 315 312 311 310 308 309 310 308 309 312 312 311 311 311 310 309 310 311 311 313 313 314 314 317 319 320 321 320 325 323 325 325 329 331 333 335
323 314 311 309 308 311 314 313 313 313 315 315 311 308 308 309 310 310 308 311 312 311 310 310 309 309 310 309 310 312 312 313 312 313 314 317 319 321 321 323 325 324 328 329 336 337 335
322 315 311 309 308 310 313 314 313 313 315 314 312 308 309 309 310 310 309 312 311 309 308 309 309 310 311 309 309 311 311 311 311 311 316 317 318 319 320 322 323 322 323 326 325 324 332
323 315 311 309 308 309 313 314 313 313 315 313 312 309 309 310 310 309 309 308 308 307 307 308 310 308 310 309 311 311 311 309 310 310 311 317 319 319 320 321 319 322 323 323 324 329 332
322 316 311 309 308 309 313 314 313 315 314 313 311 310 310 310 311 308 310 308 308 306 306 308 308 308 308 308 308 309 309 309 309 310 312 316 316 321 319 323 323 321 322 322 324 325 332
322 315 311 309 308 310 313 313 313 315 313 312 311 313 310 311 311 303 308 306 305 307 306 307 307 307 308 307 308 309 309 309 307 309 312 316 316 319 321 319 317 320 324 323 323 326 325
322 315 311 309 308 310 314 313 314 313 312 310 310 311 310 310 312 310 308 308 308 308 307 307 307 307 307 308 309 308 307 307 307 308 315 316 316 319 318 320 320 322 322 321 323 324 327
321 315 310 308 307 311 314 313 314 312 311 309 309 313 309 307 305 308 309 309 310 309 308 306 307 307 308 308 308 308 308 308 307 311 313 314 316 318 318 319 317 322 321 322 323 326 326
319 315 309 308 308 312 313 314 312 311 310 309 308 307 305 309 308 307 308 310 310 310 309 308 307 307 308 308 308 308 308 309 308 309 309 313 314 314 315 316 315 316 320 322 324 325 326
320 315 309 308 308 313 313 314 311 311 309 309 308 308 305 305 304 308 309 311 310 309 309 309 309 308 308 308 308 308 309 309 309 309 309 309 315 317 316 316 319 320 323 322 323 325 324
320 316 309 307 308 314 313 313 310 309 308 308 308 307 307 303 306 309 310 310 309 309 308 308 308 309 309 309 308 308 308 309 309 309 310 309 314 317 315 318 321 323 324 325 333 337 336
320 316 309 307 308 313 314 311 308 308 307 307 306 306 306 307 307 308 308 308 309 308 309 308 308 308 307 308 308 308 308 309 309 309 309 310 311 315 317 320 322 326 326 332 336 333 333
320 315 309 306 309 313 314 310 307 307 307 306 306 305 306 307 306 306 307 307 308 307 308 308 307 307 309 309 311 310 309 310 310 310 310 309 310 313 318 317 324 329 323 325 330 335 329
320 312 308 306 309 312 314 309 307 307 306 306 305 304 304 306 306 306 307 306 308 308 308 307 306 308 309 311 312 312 311 310 310 311 308 309 310 311 316 318 321 327 321 321 322 338 325
319 309 307 306 310 312 313 309 307 306 306 306 305 305 304 305 304 305 307 307 306 307 307 305 307 309 309 308 312 310 311 310 311 311 310 309 310 311 313 318 323 321 320 322 333 333 322
313 308 307 306 309 312 313 308 307 306 306 306 304 304 304 304 304 304 305 305 306 306 308 306 308 309 309 309 309 311 313 311 312 311 310 310 310 310 312 317 324 318 323 329 324 322 322
309 307 307 306 308 312 312 308 306 306 306 305 305 305 305 304 305 305 306 306 306 306 307 306 309 308 308 306 305 309 311 312 313 314 310 311 311 312 314 322 319 318 318 319 319 321 322
Wind_Speed
24 25 26 26 25 24 23 23 23 23 23 22 22 22 22 22 22 22 20 20 20 18 18 17 16 15 15 8 11 11 12 9 0 21 23 21 19 10 7 6 9 12 11 12 15 11 4
24 25 26 26 26 25 25 25 26 25 25 24 22 22 22 22 22 21 20 20 19 18 16 17 15 14 11 7 8 7 7 7 7 16 24 24 13 13 6 4 7 2 9 16 12 13 9
24 26 26 27 26 26 26 26 27 27 27 27 26 24 23 23 22 22 20 20 18 18 18 17 14 12 13 18 8 7 6 5 5 15 21 23 8 15 6 4 7 8 8 8 10 8 8
25 26 27 28 29 29 28 28 28 28 29 28 27 25 24 23 22 21 21 19 17 18 15 10 8 8 9 8 8 12 16 11 8 10 10 20 16 6 3 4 3 3 4 7 4 6 8
26 27 28 29 30 30 28 27 28 29 29 29 28 28 25 23 22 22 19 18 16 12 8 6 5 6 7 2 2 3 2 9 12 11 16 4 12 12 6 5 5 2 5 8 6 7 8
27 29 30 31 31 31 29 27 28 29 30 29 28 27 26 23 21 20 16 18 11 9 6 6 5 4 4 3 5 5 7 7 9 16 11 5 4 7 9 10 11 6 8 3 5 8 14
27 28 29 31 32 31 29 28 29 30 30 30 28 27 25 22 21 13 14 10 7 4 13 7 6 8 20 16 16 6 2 13 11 12 9 8 6 13 18 15 9 5 5 7 2 3 9
28 30 30 32 33 32 30 29 30 30 30 30 28 26 24 21 17 8 11 6 9 8 9 9 4 9 9 11 5 5 8 8 9 9 9 6 15 13 10 14 14 9 5 5 1 0 9
28 29 30 31 33 31 29 28 29 29 30 30 27 26 23 21 11 9 5 8 9 11 4 7 5 5 5 4 3 3 7 6 9 9 12 12 1 12 11 12 13 10 9 5 2 4 3
29 28 29 31 33 30 28 28 30 31 33 33 25 23 23 19 5 10 2 8 11 8 3 7 4 4 7 5 1 6 7 3 3 13 9 8 6 10 10 13 13 15 7 6 3 3 4
30 27 28 30 32 30 28 28 30 33 34 35 25 21 20 15 8 3 4 9 7 1 2 9 5 5 5 4 8 4 2 2 5 7 6 7 10 13 12 14 10 7 9 6 2 3 2
30 26 28 30 33 30 28 28 29 32 35 34 24 20 15 7 6 5 8 5 3 3 1 4 6 9 5 11 6 10 5 3 3 3 2 9 3 7 15 6 12 12 8 4 3 3 8
29 24 27 30 33 31 28 28 29 31 33 31 22 14 8 10 7 11 9 3 2 1 4 6 5 7 3 9 8 8 8 12 5 8 11 3 7 4 4 15 9 13 9 6 7 7 9
28 22 26 29 32 32 28 27 29 31 33 29 17 5 7 7 9 13 5 1 1 2 4 3 5 2 5 10 7 8 4 5 13 6 3 12 9 9 8 7 12 15 18 6 12 13 12
27 21 25 28 32 32 29 28 28 30 31 25 11 3 4 6 9 12 2 2 2 2 2 5 1 4 5 5 4 3 8 8 8 11 2 5 11 2 6 6 12 7 9 11 2 1 6
25 20 25 27 31 31 29 28 28 30 29 23 10 4 3 6 10 9 3 3 1 2 3 0 3 3 5 9 3 4 4 8 7 11 3 6 4 5 0 8 3 7 13 10 5 8 11
22 19 24 27 31 31 30 28 28 29 25 21 4 3 10 3 8 6 3 2 1 4 1 4 2 2 3 4 6 4 4 4 9 11 4 9 2 5 4 10 15 6 7 5 8 5 13
20 19 23 27 30 31 28 26 27 27 22 17 3 1 10 2 3 2 2 2 6 4 5 4 4 3 2 3 3 3 2 4 12 10 6 7 3 4 5 4 4 4 15 14 10 11 4
19 19 23 26 30 31 26 23 24 21 21 17 4 4 8 2 2 2 2 2 6 5 5 2 2 1 1 2 0 3 4 1 14 9 7 7 2 3 6 5 4 3 2 5 4 2 17
18 19 22 26 30 29 23 22 21 16 15 10 3 1 8 12 6 2 2 3 2 7 4 4 3 3 2 2 5 2 4 4 10 7 7 4 2 3 4 5 5 2 2 4 10 13 10
17 19 22 25 29 27 21 20 17 13 11 7 5 3 3 3 6 4 1 1 2 3 6 10 3 4 2 3 1 1 4 7 5 8 6 3 4 3 9 12 8 8 9 5 8 8 15
17 19 21 25 27 23 20 19 15 10 8 7 3 2 4 3 2 2 3 4 4 3 4 3 3 3 2 1 3 1 2 2 2 5 5 6 1 3 6 10 6 10 9 9 8 5 9
15 17 21 24 26 19 18 17 13 7 8 4 5 5 3 3 2 1 2 2 4 2 4 5 4 1 3 4 4 5 6 6 5 4 4 4 5 3 5 4 6 8 10 8 6 4 3
14 16 19 23 24 16 17 14 11 7 9 8 6 5 3 3 1 2 2 1 3 4 1 1 3 2 1 7 5 5 7 11 10 13 9 3 3 3 4 2 8 4 5 1 11 7 6
12 15 18 21 21 14 14 11 8 7 6 6 6 4 3 3 3 3 2 4 4 4 2 2 2 4 6 1 3 3 3 4 7 12 12 13 4 4 4 9 2 5 3 3 1 4 10
11 14 16 19 18 11 11 8 4 4 4 5 7 6 4 5 3 3 2 1 1 1 2 1 1 4 1 1 0 2 3 2 4 7 3 10 10 4 3 7 10 5 6 5 2 5 13
10 12 15 18 16 9 9 5 3 4 4 3 5 4 3 3 4 6 3 2 2 1 2 3 4 2 2 1 3 5 5 3 6 7 6 7 7 14 9 5 2 7 10 2 7 3 14
10 11 14 16 15 7 6 1 4 4 3 2 3 3 3 2 4 6 6 7 6 4 1 2 2 1 2 3 3 3 3 5 6 4 7 11 11 7 7 6 7 13 3 5 4 6 10
9 10 13 15 14 6 3 1 5 4 3 2 2 0 1 1 3 6 7 8 8 5 2 4 5 9 8 3 2 2 3 3 5 4 9 7 3 5 5 2 4 7 11 4 3 5 9
Wind_Direction
17 14 10 7 4 2 0 358 356 353 350 344 339 336 332 329 329 327 325 319 317 312 307 306 306 301 300 290 263 262 268 274 148 187 183 177 173 177 192 207 216 237 264 273 266 274 250
16 13 9 6 4 1 0 359 357 354 351 348 345 340 335 332 329 325 324 318 313 309 304 300 297 293 276 260 266 258 267 260 221 193 192 194 199 181 199 231 208 301 249 267 272 255 232
15 13 9 6 3 1 1 359 355 351 348 347 346 342 338 335 329 326 324 317 314 312 306 300 286 270 259 261 262 256 201 149 183 198 195 195 199 192 194 251 269 284 282 287 256 252 205
12 8 6 4 3 0 358 356 354 352 349 346 344 341 340 336 332 330 328 322 320 314 311 309 283 250 251 265 266 252 234 233 250 207 197 204 193 185 235 299 276 245 222 250 162 179 185
6 4 2 2 1 359 355 353 353 351 348 347 344 341 340 340 338 334 334 330 328 321 319 311 286 243 260 264 302 140 245 237 204 197 193 186 190 214 225 243 247 229 236 212 172 179 164
2 1 360 359 357 356 354 351 350 348 347 346 343 341 340 344 341 335 343 336 321 321 318 303 256 249 247 172 337 286 299 200 175 164 141 168 141 178 193 202 212 204 212 180 196 179 180
359 357 356 355 355 354 353 352 349 347 347 345 342 340 342 347 344 344 356 355 351 4 311 255 258 281 289 283 290 259 164 172 142 161 174 184 195 204 196 199 218 190 209 195 134 193 188
356 354 354 355 354 352 352 353 350 348 348 346 342 339 342 349 347 359 3 51 46 330 309 308 315 282 304 284 272 200 206 177 188 173 145 157 225 209 204 193 210 222 208 187 152 2 207
354 352 352 353 352 352 352 352 351 349 348 344 343 335 340 350 348 350 8 37 358 336 268 299 337 358 345 14 255 203 184 179 183 177 184 202 280 190 186 191 194 213 218 187 168 106 127
351 350 351 351 351 351 350 351 351 346 346 348 346 336 338 349 1 348 70 348 334 318 289 6 22 34 347 345 300 2 200 205 145 203 172 224 205 170 195 205 206 210 190 200 206 204 197
346 346 348 350 351 350 348 348 348 347 345 347 345 336 337 344 349 39 332 325 322 181 173 5 26 5 13 13 319 45 352 242 192 163 196 187 174 185 204 206 193 211 172 177 217 194 232
347 344 348 348 349 349 347 346 347 348 346 347 345 337 339 2 61 6 332 319 134 240 140 20 10 0 7 18 24 340 35 66 56 164 235 219 169 204 206 187 190 147 146 121 110 188 238
345 344 347 347 348 348 347 345 346 347 345 347 346 350 31 66 30 5 350 132 190 253 339 11 347 354 16 6 11 19 60 53 34 192 212 178 201 188 168 191 192 195 188 172 194 198 223
345 342 345 346 347 347 347 344 345 345 344 349 353 47 82 54 22 3 6 187 180 71 36 356 352 352 48 358 28 22 81 52 33 9 217 211 217 203 174 209 191 197 210 214 207 214 219
341 338 343 346 347 347 345 343 343 343 342 346 358 145 48 18 4 356 3 101 69 60 339 336 101 34 29 23 2 70 57 28 19 10 317 226 219 292 210 176 182 180 203 222 249 89 242
338 334 340 344 346 347 345 342 342 343 344 345 355 186 3 1 358 5 67 86 88 344 339 351 78 8 31 3 19 52 50 10 351 6 331 1 246 218 242 194 144 208 177 189 212 202 226
336 333 338 342 344 346 344 342 343 347 349 350 11 145 360 338 359 50 75 64 12 18 146 21 106 94 63 14 13 35 27 62 8 347 357 355 271 155 187 205 198 173 186 217 223 237 228
333 332 336 339 342 344 343 344 347 349 356 360 40 106 4 85 31 43 85 358 347 6 46 76 83 81 60 25 46 68 77 51 10 348 355 2 318 270 191 120 300 248 211 206 212 196 242
330 332 336 338 342 343 343 348 350 352 359 6 32 12 12 118 85 78 41 89 50 28 36 77 102 67 51 48 11 65 30 45 4 9 1 344 33 265 212 173 136 196 182 220 221 255 215
328 331 336 339 341 342 343 350 353 355 0 16 33 73 30 57 66 69 50 23 80 33 66 33 107 101 108 50 44 68 33 17 347 7 350 294 264 292 281 353 360 288 271 188 227 228 221
321 329 334 338 340 341 344 354 354 354 6 26 41 70 38 31 46 71 92 46 43 41 27 27 65 33 121 136 74 65 27 342 10 5 9 3 278 270 281 281 270 268 273 252 222 238 229
317 326 331 336 339 340 345 354 354 357 14 45 73 108 79 61 1 119 19 63 52 24 16 49 72 10 47 44 57 210 317 346 328 344 12 355 283 308 287 291 267 263 263 259 250 260 263
310 322 329 336 338 340 346 350 359 23 31 74 99 96 114 15 61 128 63 87 57 25 60 67 49 136 132 83 326 296 255 251 269 293 335 336 322 285 256 343 306 255 248 231 130 78 296
301 319 327 335 337 339 348 350 11 51 53 75 102 105 104 102 87 105 134 82 45 38 2 11 43 25 67 317 279 261 249 250 229 234 226 270 314 285 270 297 231 73 53 190 124 73 14
296 317 326 335 337 338 349 352 31 72 68 75 95 108 111 115 134 154 74 31 326 343 8 332 54 334 319 306 253 274 210 218 220 230 211 219 222 279 249 213 16 226 32 61 305 95 24
292 312 327 335 338 337 349 355 66 86 86 85 88 95 112 130 164 105 108 94 54 303 277 228 315 349 347 7 305 255 263 311 230 162 36 204 229 242 284 227 212 88 341 347 272 189 11
291 311 329 337 338 334 346 356 105 118 111 89 113 102 101 117 189 178 189 140 128 80 306 307 341 304 28 79 226 230 243 227 238 225 153 171 194 218 235 268 224 11 325 224 198 71 339
295 313 331 338 339 327 342 18 125 135 145 101 114 95 101 134 209 208 219 176 167 188 224 21 294 84 280 223 224 227 242 221 246 143 170 181 175 189 216 239 217 6 155 222 21 344 347
291 313 331 338 340 318 329 160 142 142 173 150 139 4 323 217 239 206 225 228 231 238 216 213 211 195 229 221 237 248 243 263 251 217 191 209 241 181 235 1 58 64 78 49 2 356 13